Hourly Data Report for April 10, 2012

HALIFAX STANFIELD INT'L A
NOVA SCOTIA

44°52'48.060" N
63°30'00.050" W
145.40 m
8202250
71395
YHZ

Download Data

Hourly Data (April 2012)
Hourly Data Report for April 10, 2012
TIME
LST
Temp Definition
°C
Dew Point Definition
°C
Rel Hum Definition
%
Precip. Amount Definition
mm

Wind Dir Definition
10's deg

Wind Spd Definition
km/h
Visibility Definition
km
Stn Press Definition
kPa
Hmdx Definition


Wind Chill Definition


Weather Definition


00:00 3.1 2.4 95   19 22 24.1 98.40     Mostly Cloudy
01:00 2.8 2.3 97   18 26 24.1 98.43     Mostly Cloudy
02:00 2.7 2.2 97   19 22 24.1 98.46     Cloudy
03:00 2.5 2.0 96   18 22 24.1 98.48     Cloudy
04:00 2.5 2.0 96   18 22 24.1 98.49     Mostly Cloudy
05:00 2.3 1.8 96   19 22 24.1 98.52     Mainly Clear
06:00 2.2 1.7 96   19 19 24.1 98.57     Clear
07:00 4.4 3.1 91   19 30 19.3 98.66     Clear
08:00 6.2 3.4 82   21 28 24.1 98.72     Mostly Cloudy
09:00 8.9 3.2 67   20 37 24.1 98.76     Mostly Cloudy
10:00 10.7 2.3 56   20 35 24.1 98.80     Mainly Clear
11:00 12.8 1.8 47   22 35 24.1 98.84     Mainly Clear
12:00 13.5 0.6 41   21 35 24.1 98.83     Mainly Clear
13:00 13.9 0.0 38   21 37 24.1 98.80     Mainly Clear
14:00 13.3 2.3 47   16 30 24.1 98.73     Mostly Cloudy
15:00 13.7 5.0 56   18 22 24.1 98.72     Mostly Cloudy
16:00 10.7 4.8 67   18 32 24.1 98.75     Mainly Clear
17:00 10.8 4.0 63   17 22 24.1 98.76     Mainly Clear
18:00 8.8 2.3 64   17 26 24.1 98.81     Mainly Clear
19:00 5.7 2.7 81   17 20 24.1 98.84     Mainly Clear
20:00 3.1 2.0 92   16 20 24.1 98.92     Clear
21:00 2.0 1.4 96   16 17 16.1 98.97     Clear
22:00 0.7 0.3 97   14 6 16.1 99.03     Clear
23:00 0.0 -0.4 97   19 9 9.7 99.07   -3 Fog

Notes on Data Quality.

Legend

  • E = Estimated
  • M = Missing
  • NA = Not Available*
  • [empty] = Indicates an unobserved value
Date modified: